EW5390 Weather Reports


Display with metric or nautical units.
time (UTC)temp
F
wind
direction
speed
MPH
gust
MPH
rain 1hr
in
rain 24hr
in
rain mn
in
humidity
%
barometer
mb
20260510211054 80 316 3.0 5.0 0.00 0.00 0.00 45 1012.1
20260510210553 79 320 0.0 4.0 0.00 0.00 0.00 48 1012.0
20260510210055 79 207 2.0 4.0 0.00 0.00 0.00 53 1011.9
20260510205553 78 318 1.0 4.0 0.00 0.00 0.00 53 1011.9
20260510205054 78 0 1.0 4.0 0.00 0.00 0.00 58 1011.9
20260510204556 78 60 0.0 4.0 0.00 0.00 0.00 59 1011.8
20260510204052 78 61 2.0 4.0 0.00 0.00 0.00 59 1011.8
20260510203553 78 58 1.0 4.0 0.00 0.00 0.00 59 1011.9
20260510203055 77 0 2.0 5.0 0.00 0.00 0.00 60 1011.9
20260510202556 77 53 1.0 5.0 0.00 0.00 0.00 59 1012.1
20260510202053 78 65 1.0 5.0 0.00 0.00 0.00 58 1012.1
20260510201557 78 164 0.0 3.0 0.00 0.00 0.00 58 1012.3
20260510201054 78 122 1.0 3.0 0.00 0.00 0.00 59 1012.4
20260510200554 77 110 1.0 3.0 0.00 0.00 0.00 59 1012.4
20260510200056 77 134 0.0 3.0 0.00 0.00 0.00 60 1012.4
20260510195551 77 153 1.0 3.0 0.00 0.00 0.00 60 1012.4
20260510195055 78 46 1.0 3.0 0.00 0.00 0.00 61 1012.6
20260510194601 78 77 0.0 3.0 0.00 0.00 0.00 59 1012.8
20260510194052 78 53 1.0 3.0 0.00 0.00 0.00 58 1012.7
20260510193553 78 93 0.0 3.0 0.00 0.00 0.00 57 1012.7
20260510193058 78 251 1.0 4.0 0.00 0.00 0.00 62 1012.8
20260510192551 78 334 1.0 4.0 0.00 0.00 0.00 61 1012.8
20260510192053 78 59 2.0 4.0 0.00 0.00 0.00 61 1012.7
20260510191558 78 65 1.0 4.0 0.00 0.00 0.00 60 1012.9
20260510191051 78 151 2.0 4.0 0.00 0.00 0.00 61 1012.9
20260510190551 78 93 1.0 3.0 0.00 0.00 0.00 60 1012.8
20260510190107 78 113 0.0 2.0 0.00 0.00 0.00 59 1012.8
20260510185554 77 158 0.0 2.0 0.00 0.00 0.00 60 1012.9
20260510185054 77 340 1.0 3.0 0.00 0.00 0.00 60 1013.0
20260510184556 78 63 1.0 3.0 0.00 0.00 0.00 60 1012.9
20260510184054 78 89 1.0 6.0 0.00 0.00 0.00 61 1012.9
20260510183553 78 149 3.0 6.0 0.00 0.00 0.00 59 1012.9
20260510183053 79 51 2.0 4.0 0.00 0.00 0.00 58 1013.0
20260510182552 79 53 2.0 4.0 0.00 0.00 0.00 52 1012.9
20260510182057 79 54 1.0 4.0 0.00 0.00 0.00 52 1012.8
20260510181553 79 317 1.0 2.0 0.00 0.00 0.00 52 1012.9
20260510181053 78 287 1.0 2.0 0.00 0.00 0.00 54 1012.8
20260510180553 78 322 1.0 3.0 0.00 0.00 0.00 52 1012.9
20260510180104 78 290 0.0 4.0 0.00 0.00 0.00 54 1012.9
20260510175552 78 281 1.0 4.0 0.00 0.00 0.00 56 1012.9
20260510175053 78 315 2.0 4.0 0.00 0.00 0.00 56 1012.9
20260510174604 78 8 1.0 4.0 0.00 0.00 0.00 56 1012.9
20260510174057 78 290 1.0 4.0 0.00 0.00 0.00 56 1013.0
20260510173551 78 317 2.0 4.0 0.00 0.00 0.00 55 1013.0
20260510173055 78 20 2.0 6.0 0.00 0.00 0.00 55 1013.1
20260510172553 78 330 3.0 6.0 0.00 0.00 0.00 55 1013.0
20260510172051 78 302 1.0 6.0 0.00 0.00 0.00 56 1013.1
20260510171604 78 283 1.0 2.0 0.00 0.00 0.00 57 1013.0
20260510171054 78 336 1.0 5.0 0.00 0.00 0.00 57 1013.1
20260510170551 77 309 1.0 5.0 0.00 0.00 0.00 57 1013.1
20260510170057 77 0 3.0 5.0 0.00 0.00 0.00 60 1013.1
20260510165552 77 321 2.0 5.0 0.00 0.00 0.00 58 1013.2
20260510165051 77 316 1.0 4.0 0.00 0.00 0.00 58 1013.2
20260510164610 76 338 1.0 4.0 0.00 0.00 0.00 58 1013.3
20260510164055 76 319 2.0 4.0 0.00 0.00 0.00 57 1013.4
20260510163554 76 323 0.0 3.0 0.00 0.00 0.00 59 1013.4
20260510163139 76 321 1.0 4.0 0.00 0.00 0.00 58 1013.6
20260510162553 76 2 2.0 4.0 0.00 0.00 0.00 57 1013.5
20260510162053 76 317 3.0 4.0 0.00 0.00 0.00 57 1013.4
20260510161557 76 317 0.0 2.0 0.00 0.00 0.00 60 1013.5
20260510161053 76 317 1.0 4.0 0.00 0.00 0.00 59 1013.4
20260510160554 76 6 2.0 4.0 0.00 0.00 0.00 60 1013.4
20260510160101 76 326 3.0 4.0 0.00 0.00 0.00 58 1013.5
20260510155553 76 248 2.0 4.0 0.00 0.00 0.00 60 1013.5
20260510155053 76 10 2.0 4.0 0.00 0.00 0.00 58 1013.5
20260510154556 76 335 1.0 2.0 0.00 0.00 0.00 59 1013.5
20260510154054 76 6 1.0 2.0 0.00 0.00 0.00 59 1013.6
20260510153553 77 327 1.0 3.0 0.00 0.00 0.00 59 1013.5
20260510153102 76 37 1.0 3.0 0.00 0.00 0.00 62 1013.5
20260510152553 76 321 0.0 3.0 0.00 0.00 0.00 61 1013.5
20260510152053 75 321 2.0 3.0 0.00 0.00 0.00 62 1013.4
20260510151628 75 57 1.0 3.0 0.00 0.00 0.00 61 1013.3
20260510151053 75 53 1.0 4.0 0.00 0.00 0.00 62 1013.3
20260510150554 75 330 2.0 4.0 0.00 0.00 0.00 62 1013.4
20260510150100 75 193 1.0 3.0 0.00 0.00 0.00 61 1013.3
20260510145553 75 40 1.0 2.0 0.00 0.00 0.00 62 1013.3
20260510145055 74 310 1.0 2.0 0.00 0.00 0.00 63 1013.3
20260510144605 74 311 1.0 4.0 0.00 0.00 0.00 62 1013.4
20260510144053 74 319 2.0 4.0 0.00 0.00 0.00 63 1013.4
20260510143554 74 320 1.0 2.0 0.00 0.00 0.00 65 1013.3
20260510143106 74 329 1.0 2.0 0.00 0.00 0.00 64 1013.3
20260510142553 73 161 1.0 2.0 0.00 0.00 0.00 66 1013.3
20260510142053 73 325 1.0 2.0 0.00 0.00 0.00 66 1013.5
20260510141559 73 334 0.0 3.0 0.00 0.00 0.00 68 1013.6
20260510141053 72 342 2.0 3.0 0.00 0.00 0.00 67 1013.5
20260510140555 72 37 1.0 2.0 0.00 0.00 0.00 69 1013.4
20260510140053 72 338 1.0 1.0 0.00 0.00 0.00 69 1013.3
20260510135554 72 338 0.0 1.0 0.00 0.00 0.00 70 1013.3
20260510135053 71 338 0.0 2.0 0.00 0.00 0.00 70 1013.3
20260510134556 70 338 0.0 2.0 0.00 0.00 0.00 72 1013.3
20260510134057 70 338 0.0 2.0 0.00 0.00 0.00 72 1013.5
20260510133554 69 343 0.0 2.0 0.00 0.00 0.00 73 1013.6
20260510133054 68 2 0.0 2.0 0.00 0.00 0.00 76 1013.6
20260510132556 67 5 1.0 2.0 0.00 0.00 0.00 77 1013.7
20260510132055 67 5 0.0 1.0 0.00 0.00 0.00 78 1013.6
20260510131557 66 89 0.0 1.0 0.00 0.00 0.00 80 1013.6
20260510131054 66 177 0.0 1.0 0.00 0.00 0.00 81 1013.7
20260510130556 65 14 0.0 1.0 0.00 0.00 0.00 82 1013.6
20260510130055 65 13 0.0 1.0 0.00 0.00 0.00 82 1013.5
20260510125552 64 0 0.0 1.0 0.00 0.00 0.00 84 1013.4
20260510125055 63 0 0.0 2.0 0.00 0.00 0.00 84 1013.3
20260510124600 63 0 0.0 2.0 0.00 0.00 0.00 85 1013.4
20260510124053 62 56 1.0 2.0 0.00 0.00 0.00 85 1013.4
20260510123553 62 21 1.0 2.0 0.00 0.00 0.00 85 1013.3
20260510123052 62 326 0.0 3.0 0.00 0.00 0.00 86 1013.3
20260510122553 61 0 1.0 3.0 0.00 0.00 0.00 87 1013.3
20260510122053 61 56 0.0 3.0 0.00 0.00 0.00 88 1013.1
20260510121604 61 37 1.0 3.0 0.00 0.00 0.00 89 1013.1
20260510121053 60 63 1.0 3.0 0.00 0.00 0.00 89 1012.9
20260510120551 60 330 1.0 2.0 0.00 0.00 0.00 90 1013.0
20260510120100 59 330 1.0 2.0 0.00 0.00 0.00 91 1012.9
20260510115552 59 341 0.0 2.0 0.00 0.00 0.00 91 1012.6
20260510115051 59 0 0.0 1.0 0.00 0.00 0.00 92 1012.5
20260510114557 59 0 0.0 1.0 0.00 0.00 0.00 92 1012.2
20260510114053 58 0 1.0 1.0 0.00 0.00 0.00 93 1012.3
20260510113553 58 345 0.0 1.0 0.00 0.00 0.00 93 1012.2
20260510113057 58 345 0.0 1.0 0.00 0.00 0.00 93 1012.2
20260510112552 58 0 0.0 0.0 0.00 0.00 0.00 93 1012.1
20260510112053 57 0 0.0 1.0 0.00 0.00 0.00 93 1012.0
20260510111602 57 0 0.0 2.0 0.00 0.00 0.00 93 1011.9
20260510111051 57 0 0.0 2.0 0.00 0.00 0.00 93 1011.8
20260510110552 57 20 0.0 1.0 0.00 0.00 0.00 93 1011.9
20260510110058 57 20 0.0 2.0 0.00 0.00 0.00 94 1011.9
20260510105552 57 1 1.0 2.0 0.00 0.00 0.00 94 1011.9
20260510105056 57 0 1.0 2.0 0.00 0.00 0.00 94 1011.7
20260510104558 57 0 0.0 2.0 0.00 0.00 0.00 94 1011.8
20260510104054 57 352 0.0 2.0 0.00 0.00 0.00 94 1011.8
20260510103554 57 0 0.0 2.0 0.00 0.00 0.00 94 1011.6
20260510103059 57 13 0.0 2.0 0.00 0.00 0.00 95 1011.7
20260510102554 57 2 0.0 2.0 0.00 0.00 0.00 95 1011.8
20260510102054 57 0 0.0 0.0 0.00 0.00 0.00 95 1011.7
20260510101555 57 0 0.0 0.0 0.00 0.00 0.00 95 1011.6
20260510101052 57 0 0.0 0.0 0.00 0.00 0.00 95 1011.6
20260510100552 57 0 0.0 0.0 0.00 0.00 0.00 95 1011.5
20260510100116 57 0 0.0 0.0 0.00 0.00 0.00 95 1011.6
20260510095552 57 0 0.0 0.0 0.00 0.00 0.00 95 1011.5
20260510095054 57 0 0.0 0.0 0.00 0.00 0.00 95 1011.5
20260510094606 57 0 0.0 0.0 0.00 0.00 0.00 95 1011.4
20260510094052 57 0 0.0 0.0 0.00 0.00 0.00 95 1011.4
20260510093556 57 0 0.0 0.0 0.00 0.00 0.00 95 1011.2
20260510093101 57 0 0.0 0.0 0.00 0.00 0.00 95 1011.2
20260510092555 57 0 0.0 0.0 0.00 0.00 0.00 95 1011.2
20260510092052 57 0 0.0 0.0 0.00 0.00 0.00 95 1011.2
20260510091555 57 0 0.0 0.0 0.00 0.00 0.00 95 1011.2
20260510091051 57 0 0.0 0.0 0.00 0.00 0.00 95 1011.0
20260510090554 57 0 0.0 0.0 0.00 0.00 0.00 95 1010.9
20260510090058 57 0 0.0 0.0 0.00 0.00 0.00 95 1010.8
20260510085554 57 0 0.0 0.0 0.00 0.00 0.00 95 1010.8
20260510085051 57 0 0.0 0.0 0.00 0.00 0.00 95 1010.7
20260510084612 57 0 0.0 0.0 0.00 0.00 0.00 95 1010.6
20260510084053 57 0 0.0 0.0 0.00 0.00 0.00 96 1010.5
20260510083553 57 0 0.0 0.0 0.00 0.00 0.00 96 1010.3
20260510083056 56 0 0.0 0.0 0.00 0.00 0.00 96 1010.4
20260510082554 56 0 0.0 0.0 0.00 0.00 0.00 96 1010.4
20260510082054 56 0 0.0 0.0 0.00 0.00 0.00 96 1010.4
20260510081559 56 0 0.0 0.0 0.00 0.00 0.00 96 1010.4
20260510081055 56 0 0.0 0.0 0.00 0.00 0.00 96 1010.4
20260510080557 56 0 0.0 0.0 0.00 0.00 0.00 96 1010.4
20260510080058 56 0 0.0 0.0 0.00 0.00 0.00 96 1010.3
20260510075554 56 0 0.0 0.0 0.00 0.00 0.00 96 1010.4
20260510075054 56 0 0.0 0.0 0.00 0.00 0.00 96 1010.4
20260510074553 56 0 0.0 0.0 0.00 0.00 0.00 96 1010.4
20260510074054 56 0 0.0 0.0 0.00 0.00 0.00 96 1010.4
20260510073550 56 0 0.0 0.0 0.00 0.00 0.00 96 1010.4
20260510073102 56 0 0.0 0.0 0.00 0.00 0.00 96 1010.3
20260510072552 56 0 0.0 0.0 0.00 0.00 0.00 96 1010.3
20260510072054 56 0 0.0 0.0 0.00 0.00 0.00 96 1010.4
20260510071554 56 0 0.0 0.0 0.00 0.00 0.00 96 1010.2
20260510071051 56 0 0.0 0.0 0.00 0.00 0.00 96 1010.3
20260510070552 56 0 0.0 0.0 0.00 0.00 0.00 96 1010.2
20260510070057 56 0 0.0 0.0 0.00 0.00 0.00 96 1010.3
20260510065552 55 0 0.0 0.0 0.00 0.00 0.00 96 1010.3
20260510065055 55 0 0.0 0.0 0.00 0.00 0.00 95 1010.2
20260510064556 55 0 0.0 0.0 0.00 0.00 0.00 95 1010.2
20260510064054 55 0 0.0 0.0 0.00 0.00 0.00 95 1010.3
20260510063554 55 0 0.0 0.0 0.00 0.00 0.00 95 1010.3
20260510063055 55 0 0.0 0.0 0.00 0.00 0.00 95 1010.3
20260510062554 55 0 0.0 0.0 0.00 0.00 0.00 95 1010.3
20260510062054 55 0 0.0 0.0 0.00 0.00 0.00 95 1010.4
20260510061555 55 0 0.0 0.0 0.00 0.00 0.00 95 1010.4
20260510061058 55 0 0.0 0.0 0.00 0.00 0.00 95 1010.4
20260510060553 55 0 0.0 0.0 0.00 0.00 0.00 95 1010.4
20260510060054 55 0 0.0 0.0 0.00 0.00 0.00 95 1010.5
20260510055552 55 0 0.0 0.0 0.00 0.00 0.00 95 1010.4
20260510055057 55 0 0.0 0.0 0.00 0.00 0.00 95 1010.5
20260510054555 55 0 0.0 0.0 0.00 0.00 0.00 95 1010.4
20260510054055 55 0 0.0 0.0 0.00 0.00 0.00 95 1010.4
20260510053553 55 0 0.0 0.0 0.00 0.00 0.00 95 1010.5
20260510053100 55 0 0.0 0.0 0.00 0.00 0.00 94 1010.5
20260510052552 55 0 0.0 0.0 0.00 0.00 0.00 94 1010.4
20260510052056 55 0 0.0 0.0 0.00 0.00 0.00 94 1010.4
20260510051556 55 0 0.0 0.0 0.00 0.00 0.00 94 1010.4
20260510051054 55 0 0.0 0.0 0.00 0.00 0.00 94 1010.6
20260510050554 55 0 0.0 0.0 0.00 0.00 0.00 94 1010.6
20260510050057 55 0 0.0 0.0 0.00 0.00 0.00 94 1010.5
20260510045554 55 0 0.0 0.0 0.00 0.00 0.00 94 1010.6
20260510045054 55 0 0.0 0.0 0.00 0.00 0.00 94 1010.7
20260510044558 55 0 0.0 0.0 0.00 0.00 0.00 94 1010.6
20260510044054 55 0 0.0 0.0 0.00 0.00 0.00 93 1010.7
20260510043554 55 0 0.0 0.0 0.00 0.00 0.00 93 1010.6
20260510043110 56 0 0.0 0.0 0.00 0.00 0.00 93 1010.6
20260510042553 56 0 0.0 0.0 0.00 0.00 0.00 93 1010.7
20260510042053 56 0 0.0 0.0 0.00 0.00 0.00 93 1010.7
20260510041557 56 0 0.0 0.0 0.00 0.00 0.00 93 1010.7
20260510041054 56 0 0.0 0.0 0.00 0.00 0.00 93 1010.8
20260510040554 56 0 0.0 0.0 0.00 0.00 0.00 92 1010.7
20260510035553 56 0 0.0 0.0 0.00 0.00 0.00 92 1010.6
20260510035053 56 0 0.0 0.0 0.00 0.00 0.00 92 1010.6
20260510034601 57 0 0.0 0.0 0.00 0.00 0.00 92 1010.5
20260510034055 57 0 0.0 0.0 0.00 0.00 0.00 91 1010.4
20260510033554 57 0 0.0 0.0 0.00 0.00 0.00 91 1010.3
20260510033139 57 0 0.0 0.0 0.00 0.00 0.00 91 1010.3
20260510032554 57 0 0.0 0.0 0.00 0.00 0.00 91 1010.2
20260510032054 57 0 0.0 0.0 0.00 0.00 0.00 91 1010.2
20260510031610 57 0 0.0 0.0 0.00 0.00 0.00 90 1010.3
20260510031054 57 0 0.0 0.0 0.00 0.00 0.00 90 1010.3
20260510030553 58 0 0.0 0.0 0.00 0.00 0.00 90 1010.2
20260510030100 58 0 0.0 0.0 0.00 0.00 0.00 89 1010.3
20260510025553 58 0 0.0 0.0 0.00 0.00 0.00 89 1010.3
20260510025054 58 0 0.0 0.0 0.00 0.00 0.00 89 1010.3
20260510024553 58 0 0.0 0.0 0.00 0.00 0.00 89 1010.3
20260510024056 58 0 0.0 0.0 0.00 0.00 0.00 88 1010.3
20260510023554 58 0 0.0 0.0 0.00 0.00 0.00 88 1010.4
20260510023055 58 0 0.0 0.0 0.00 0.00 0.00 88 1010.2
20260510022554 58 0 0.0 0.0 0.00 0.00 0.00 87 1010.2
20260510022056 59 0 0.0 0.0 0.00 0.00 0.00 87 1010.2
20260510021553 59 0 0.0 0.0 0.00 0.00 0.00 87 1010.2
20260510021052 59 0 0.0 0.0 0.00 0.00 0.00 86 1010.2
20260510020554 59 0 0.0 0.0 0.00 0.00 0.00 86 1010.3
20260510020054 59 0 0.0 0.0 0.00 0.00 0.00 86 1010.2
20260510015551 59 0 0.0 0.0 0.00 0.00 0.00 85 1010.3
20260510015051 60 0 0.0 0.0 0.00 0.00 0.00 85 1010.1
20260510014555 60 0 0.0 0.0 0.00 0.00 0.00 85 1010.2
20260510014051 60 0 0.0 0.0 0.00 0.00 0.00 84 1010.2
20260510013552 60 0 0.0 0.0 0.00 0.00 0.00 84 1010.2
20260510013056 60 0 0.0 0.0 0.00 0.00 0.00 83 1010.2
20260510012557 61 0 0.0 0.0 0.00 0.00 0.00 83 1010.2
20260510012054 61 0 0.0 0.0 0.00 0.00 0.00 83 1010.1
20260510011555 61 0 0.0 0.0 0.00 0.00 0.00 82 1010.1
20260510011054 61 0 0.0 1.0 0.00 0.00 0.00 83 1010.1
20260510010554 62 60 0.0 1.0 0.00 0.00 0.00 82 1010.1
20260510010059 62 0 0.0 2.0 0.00 0.00 0.00 81 1010.1
20260510005554 62 60 0.0 2.0 0.00 0.00 0.00 80 1010.0
20260510005053 62 60 1.0 1.0 0.00 0.00 0.00 80 1009.9
20260510004556 62 0 0.0 1.0 0.00 0.00 0.00 81 1010.0
20260510004051 62 0 0.0 2.0 0.00 0.00 0.00 80 1010.0
20260510003552 63 60 1.0 2.0 0.00 0.00 0.00 79 1009.9
20260510003052 63 60 0.0 2.0 0.00 0.00 0.00 79 1009.8
20260510002551 63 60 1.0 3.0 0.00 0.00 0.00 79 1009.8
20260510002054 64 61 1.0 3.0 0.00 0.00 0.00 78 1009.7
20260510001553 64 60 1.0 3.0 0.00 0.00 0.00 77 1009.7
20260510001054 64 65 0.0 3.0 0.00 0.00 0.00 77 1009.7
20260510000556 64 75 1.0 3.0 0.00 0.00 0.00 78 1009.5
20260510000105 65 65 1.0 3.0 0.00 0.00 0.00 77 1009.4
20260509235554 65 75 2.0 4.0 0.00 0.00 0.00 76 1009.3
20260509235054 66 65 1.0 4.0 0.00 0.00 0.00 75 1009.4
20260509234602 66 78 2.0 4.0 0.00 0.00 0.00 74 1009.4
20260509234051 67 65 2.0 4.0 0.00 0.00 0.00 73 1009.4
20260509233553 68 81 1.0 4.0 0.00 0.00 0.00 72 1009.2
20260509233101 69 0 0.0 0.0 0.00 0.00 0.00 73 1009.1
20260509232554 69 0 0.0 0.0 0.00 0.00 0.00 67 1009.0
20260509232054 69 0 0.0 0.0 0.00 0.00 0.00 66 1009.0
20260509231559 70 0 0.0 0.0 0.00 0.00 0.00 66 1009.0
20260509231053 70 0 0.0 0.0 0.00 0.00 0.00 65 1009.0
20260509230551 71 0 0.0 1.0 0.00 0.00 0.00 64 1009.0
20260509230055 71 0 0.0 1.0 0.00 0.00 0.00 64 1009.1
20260509225555 71 0 0.0 2.0 0.00 0.00 0.00 63 1009.0
20260509225054 71 0 0.0 2.0 0.00 0.00 0.00 63 1009.0
20260509224603 71 0 0.0 2.0 0.00 0.00 0.00 63 1008.9
20260509224056 71 321 0.0 1.0 0.00 0.00 0.00 63 1008.9
20260509223553 72 321 0.0 2.0 0.00 0.00 0.00 63 1008.9
20260509223102 71 0 0.0 2.0 0.00 0.00 0.00 62 1008.9
20260509222555 71 321 1.0 2.0 0.00 0.00 0.00 62 1008.9
20260509222055 71 322 1.0 3.0 0.00 0.00 0.00 63 1009.0
20260509221600 71 322 1.0 3.0 0.00 0.00 0.00 62 1008.9
20260509221055 71 323 1.0 3.0 0.00 0.00 0.00 62 1008.8
20260509220554 71 323 1.0 2.0 0.00 0.00 0.00 61 1008.8
20260509220056 71 325 0.0 3.0 0.00 0.00 0.00 61 1008.8
20260509215554 71 319 1.0 3.0 0.00 0.00 0.00 62 1008.8
20260509215054 71 319 1.0 4.0 0.00 0.00 0.00 61 1008.8
20260509214602 72 319 1.0 5.0 0.00 0.00 0.00 62 1008.7
20260509214055 72 317 1.0 5.0 0.00 0.00 0.00 63 1008.7
20260509213554 72 309 0.0 5.0 0.00 0.00 0.00 62 1008.8
20260509213056 72 308 2.0 5.0 0.00 0.00 0.00 61 1008.7
20260509212553 72 319 1.0 4.0 0.00 0.00 0.00 61 1008.6
20260509212053 72 260 2.0 4.0 0.00 0.00 0.00 60 1008.7
20260509211602 72 341 1.0 3.0 0.00 0.00 0.00 61 1008.7